Погода в Кургане

Погода в Кургане : погода сейчас, прогноз погоды и архив. Всё, что Вы хотите узнать о погоде в Кургане!

Хотите узнать прогноз погоды в Кургане? Тогда Вам сюда: Погода в Кургане

Поиск расширенной информации на нашем сайте:

Другие новости

Новости СМИ2

Главная страница сайта

Новости сайта

02.10.2013

Напоминаем, что на нашем новом сайте вы можете получить высокодетализированные прогнозы погоды по пунктам России, СНГ и мира (включающие важные для авиации метеовеличины, такие как направление и скорость ветра, видимость, явления погоды, количество и форма облачности, нижняя и верхняя граница облачности), а также ознакомиться с разнообразными материалами по авиационной метеорологии и подборкой полезных ссылок на эту тему.

Сайт Метеоцентр.Азия посвящён разработке технологий оптимизации авиаметеорологического обслуживания, включая проектирование и перспективное создание нескольких автоматизированных авиаметеорологических систем:
- система выпуска высокодетальных прогностических карт явлений погоды для нижнего воздушного пространства по России и ближнему зарубежью;
- система верификации прогнозов TAF (выпускаемых синоптиками официальных АМСГ РФ и ближнего зарубежья) и AUTOTAF (выпускаемых сайтом Метеоцентр.Азия) - выявление ошибок, онлайн-сопоставление с фактической погодой METAR, автоматическое внесение коррективов в прогнозы при резком отклонении фактической погоды от прогноза, подсчёт оправдываемости прогнозов по элементам и в целом;
- система обработки, анализа и отображения авиаметеорологической информации для применения провайдерами метеорологической информации.

Рекомендуем: Магазины yves rocher

Погода в Кургане - сегодня

Время (UTC), дата Ветер
(°,м/с) 
Видим.   Явления Облачность Т
(°С)
Тd
(°С)
f(%) Тe
(°С)
Pmin
(гПа)
dP
(гПа)
Po
(мм)
O2
(г/м3)
Тmin Tmax R s Состояние
почвы
15 30.11.16 200 (Ю) 4000 м  слаб. снег  10/10 300 м 
[Ns]
-0.7 -1.5 94 1009.3  -1.6  750  303    +0.5     
18 30.11.16 190 (Ю) 4000 м  слаб. снег [диам. отлож. мокр. снега 20 мм]  10/10 300 м 
[Ns]
-1 -1.8 94 1008  -1.3  749  303           
21 30.11.16 180 (Ю) 4000 м  слаб. снег [диам. отлож. мокр. снега 30 мм]  10/10 300 м 
[Ns]
-1.3 -2 95 -2  1006.8  -1.1  748  303           
00 01.12.16 250 (З) 4000 м  слаб. снег [диам. отлож. мокр. снега 30 мм]  10/5 300 м средняя 
[Frnb|As op]
-1.7 -2.4 95 -4  1006.5  -0.3  748  304           
03 01.12.16 220 (ЮЗ) 10 км  в посл. час снег [диам. отлож. мокр. снега 30 мм]  8/8 600 м 
[Sc diur, vesp]
-5.6 -7.3 88 -8  1009.6  2.9  750  309  -5.6    22  равномерный
сухой снег
100% 
06 01.12.16 280 (З) 20000 м  {снег}  10/4 1000 м средняя 
[Sc|Ac und]
-5.9 -8.9 79 -8  1012.4  2.8  752  311  -6.2         
09 01.12.16 300 (СЗ) 20000 м    3/0 средняя 
[Ac trans]
-8.2 -12.5 71 -11  1014.8  2.2  754  314           
12 01.12.16 290 (З) 10 км    4/0 средняя 
[Ac trans]
-11.2 -14.9 74 -14  1017.7  2.8  756  319           
15 01.12.16 320 (СЗ) 10 км    10/0 средняя 
[Ac und]
-12.2 -15.6 76 -16  1020.3  2.5  758  321    -5.6       
18 01.12.16 300 (СЗ) 10 км    10/0 средняя 
[Ac und]
-13.6 -16.6 78 -16  1022.5  2.1  759  323           
21 01.12.16 300 (СЗ) 10 км    6/0 средняя 
[Ac trans]
-15.2 -17.9 80 -17  1024.8  2.1  761  326           
00 02.12.16 280 (З) 10 км    8/0 средняя 
[Ac trans]
-16.5 -19 81 -17  1026.9  2.1  763  329           
03 02.12.16 130 (ЮВ) 10 км    10/5 300 м средняя 
[Sc|Ac und]
-17.4 -19.6 83 -18  1029  764  330  -18.8      22  равномерный
сухой снег
100% 
06 02.12.16 160 (Ю) 20000 м  в посл. час снег  10/0 средняя, верхняя 
[Ac trans|Ci fib]
-18.1 -20.8 79 -18  1031  1.9  766  332           
09 02.12.16 180 (Ю) 20000 м    10/0 верхняя 
[Ci fib]
-15.4 -19.5 71 -15  1032.1  1.1  767  329           
12 02.12.16 тихо ()   10 км    10/0 верхняя 
[Ci fib]
-17.3 -19.3 84 -17  1032.9  0.7  767  332           
15 02.12.16 150 (ЮВ) 10 км    8/0 верхняя 
[Ci fib]
-20.5 -22.6 83 -21  1033.6  0.6  767  336    -15.4  0.0     
18 02.12.16 350 (С) 10 км    6/0 верхняя 
[Ci fib]
-23.5 -26 80 -24  1033.5  -0.2  767  340           
21 02.12.16 340 (С) 10 км    6/0 верхняя 
[Ci fib]
-24.1 -26.8 78 -25  1032  -1.4  766  340           
00 03.12.16 360 (С) 10 км    4/0 верхняя 
[Ci fib]
-24.5 -27.3 77 -25  1031.1  -0.9  766  341           
03 03.12.16 350 (С) 10 км    4/0 верхняя 
[Ci fib]
-22.8 -25.5 79 -23  1027.4  -3.6  763  337  -25      22  равномерный
сухой снег
100% 
06 03.12.16 090 (В) 20000 м    10/0 верхняя 
[Ci sp]
-16.5 -18.7 83 -19  1024.7  -2.4  761  328           
09 03.12.16 070 (В) 20000 м    10/0 средняя, верхняя 
[Ac trans|Ci]
-14.8 -17.5 80 -18  1019.7  -4.9  757  324           
12 03.12.16 060 (СВ) 10 км    10/0 средняя 
[Ac und]
-13.5 -16.5 78 -18  1013.4  -6.1  753  320           
15 03.12.16 070 (В) 4{11}  4000 м  слаб. снег  10/0 средняя 
[Ac As]
-11.9 -15 78 -16  1006.8  -6.4  748  316    -11.7  0.0     
Время (UTC), дата Ветер
(°,м/с) 
Видим.   Явления Облачность Т
(°С)
Тd
(°С)
f(%) Тe
(°С)
Pmin
(гПа)
dP
(гПа)
Po
(мм)
O2
(г/м3)
Тmin Tmax R s Состояние
почвы

Для получения пояснительной информации подведите курсор к названию столбца.

ПОГОДА в Кургане - архив

Всё, что Вы хотите узнать о погоде в Кургане - удобно и подробно!

Выберите нужную дату (начиная с 1 января 2015* года) и нажмите кнопку "Найти".
Будут отображены архивные сводки погоды по пункту Курган, начиная с указанной даты.


Отображать данные в формате CSV (для использования в таблицах Excel)


Внимание! Наш архив погоды предназначен исключительно для личного некоммерческого использования в познавательных целях. Если Вам необходимы официальные справки о состоянии погоды (для производственных, юридических, коммерческих и т.п. целей), обращайтесь в органы Росгидромета.

*Примечание: данная дата относится к архиву по метеостанциям СССР (Россия, СНГ, Балтия).
Архив по метеостанциям Зарубежной Европы и Азии (кроме Китая) хранится 10 дней, по другим регионам земного шара (Китай, Африка, Америка, Австралия, Океания) - 1 день.

Курган - район местоположения метеостанции


Название, широта, долгота, высота метеостанции:
Курган 55.5°ш. 65.4°д. 74 м над ур. моря [Российская Федерация]

Дополнительная информация

В oтличие oт бoльшинства пoгoдных сайтoв мы публикуем пoдрoбную метеoинфoрмацию в детальнoм прoфессиoнальнoм фoрмате.

Характеристики температуры и влажнoсти вoздуха измеряются на высoте 2 м в тени вдали oт зданий и деревьев.
Скoрoсть ветра измеряется на высoте 10 м (на урoвне рoста челoвека скoрoсть ветра ниже в 1.5-2 раза). Если метеoстанция нахoдится в гoрoде или в лесу, тo скoрoсть ветра занижена на 2-4 м/с пo сравнению с oткрытым местoм. Скoрoсть ветра над акватoриями крупных рек и oзёр, а также на вершинах хoлмoв на 2-5 м/с выше, чем в oбычных услoвиях.
Атмoсфернoе давление в разных тoчках местнoсти мoжет значительнo oтличаться oт давления на метеoстанции, в зависимoсти oт услoвий рельефа (при пoдъёме на 10 м давление пoнижается примернo на 1 мм рт.ст.).